VJH727 LIML-LIPE

Flight info

Callsign VJH727
Flight time 0h 25m
Altitude 19000
Route LOGDI DCT RIPDU
Aircraft C750/M-SBDE3FGHRWXY/S

Departure

Time 2026-04-29 16:24
Airport Milano Linate Airport (LIML)

Arrival

Time 2026-04-29 16:49
Airport Bologna Guglielmo Marconi Airport (LIPE)
Time Latitude Longitude Altitude Speed Heading
2026-04-29 15:57 45.45472 9.26173 356 ft 0 kts 244°
2026-04-29 16:10 45.45480 9.26200 363 ft 3 kts 257°
2026-04-29 16:11 45.45482 9.26229 359 ft 3 kts 290°
2026-04-29 16:11 45.45472 9.26249 356 ft 1 kts 335°
2026-04-29 16:11 45.45467 9.26252 363 ft 0 kts 335°
2026-04-29 16:14 45.45479 9.26244 356 ft 6 kts 335°
2026-04-29 16:14 45.45534 9.26207 358 ft 12 kts 333°
2026-04-29 16:15 45.45631 9.26159 356 ft 18 kts 356°
2026-04-29 16:15 45.45771 9.26143 356 ft 20 kts 354°
2026-04-29 16:15 45.45906 9.26201 360 ft 20 kts 34°
2026-04-29 16:15 45.46008 9.26330 356 ft 19 kts 51°
2026-04-29 16:16 45.46062 9.26492 358 ft 18 kts 77°
2026-04-29 16:16 45.46066 9.26605 356 ft 17 kts 91°
2026-04-29 16:16 45.46066 9.26783 356 ft 19 kts 90°
2026-04-29 16:16 45.46058 9.26983 356 ft 21 kts 100°
2026-04-29 16:17 45.46022 9.27196 359 ft 23 kts 98°
2026-04-29 16:17 45.46016 9.27499 356 ft 23 kts 91°
2026-04-29 16:17 45.45974 9.27701 358 ft 21 kts 127°
2026-04-29 16:17 45.45907 9.27845 360 ft 14 kts 91°
2026-04-29 16:18 45.45907 9.27940 356 ft 14 kts 90°
2026-04-29 16:18 45.45853 9.27984 356 ft 9 kts 181°
2026-04-29 16:18 45.45799 9.27983 356 ft 14 kts 180°
2026-04-29 16:18 45.45683 9.27981 356 ft 20 kts 180°
2026-04-29 16:19 45.45537 9.27978 356 ft 21 kts 181°
2026-04-29 16:19 45.45393 9.27977 357 ft 20 kts 181°
2026-04-29 16:19 45.45278 9.27899 356 ft 18 kts 207°
2026-04-29 16:19 45.45161 9.27870 357 ft 17 kts 176°
2026-04-29 16:20 45.45043 9.27884 361 ft 17 kts 175°
2026-04-29 16:20 45.44929 9.27907 361 ft 16 kts 163°
2026-04-29 16:20 45.44819 9.27942 357 ft 18 kts 176°
2026-04-29 16:20 45.44686 9.27956 357 ft 21 kts 176°
2026-04-29 16:21 45.44530 9.27973 357 ft 24 kts 176°
2026-04-29 16:21 45.44358 9.27991 357 ft 25 kts 175°
2026-04-29 16:21 45.44192 9.28010 360 ft 23 kts 175°
2026-04-29 16:21 45.44034 9.28028 360 ft 22 kts 176°
2026-04-29 16:22 45.43884 9.28042 359 ft 21 kts 175°
2026-04-29 16:22 45.43741 9.28058 361 ft 20 kts 176°
2026-04-29 16:22 45.43606 9.28072 357 ft 19 kts 175°
2026-04-29 16:22 45.43484 9.28081 357 ft 16 kts 193°
2026-04-29 16:23 45.43442 9.27959 357 ft 14 kts 264°
2026-04-29 16:23 45.43440 9.27834 359 ft 10 kts 294°
2026-04-29 16:23 45.43485 9.27816 359 ft 7 kts 355°
2026-04-29 16:23 45.43578 9.27806 358 ft 37 kts 355°
2026-04-29 16:24 45.44254 9.27734 356 ft 147 kts 355°
2026-04-29 16:24 45.45327 9.27614 913 ft 157 kts 359°
2026-04-29 16:24 45.46445 9.27487 1681 ft 165 kts
2026-04-29 16:24 45.47621 9.27677 2388 ft 176 kts 13°
2026-04-29 16:25 45.48866 9.27943 3162 ft 185 kts 10°
2026-04-29 16:25 45.50171 9.28170 3957 ft 192 kts
2026-04-29 16:25 45.51436 9.28768 4732 ft 195 kts 40°
2026-04-29 16:25 45.52078 9.30388 5543 ft 192 kts 84°
2026-04-29 16:26 45.51920 9.32203 6526 ft 184 kts 110°
2026-04-29 16:26 45.51228 9.33738 7281 ft 187 kts 127°
2026-04-29 16:26 45.50442 9.35272 7969 ft 201 kts 126°
2026-04-29 16:26 45.49615 9.36990 8544 ft 221 kts 123°
2026-04-29 16:27 45.48730 9.38918 9130 ft 241 kts 123°
2026-04-29 16:27 45.47791 9.41027 9581 ft 262 kts 123°
2026-04-29 16:27 45.46744 9.43293 10025 ft 288 kts 125°
2026-04-29 16:27 45.45536 9.45688 10527 ft 307 kts 127°
2026-04-29 16:28 45.44238 9.48241 10928 ft 329 kts 125°
2026-04-29 16:28 45.42967 9.51063 11380 ft 345 kts 121°
2026-04-29 16:28 45.41703 9.54051 11885 ft 359 kts 123°
2026-04-29 16:28 45.40219 9.56959 12536 ft 366 kts 126°
2026-04-29 16:29 45.38744 9.59947 13253 ft 371 kts 123°
2026-04-29 16:29 45.37096 9.62788 13862 ft 377 kts 140°
2026-04-29 16:29 45.34910 9.64831 14575 ft 369 kts 149°
2026-04-29 16:29 45.32762 9.66705 15073 ft 368 kts 149°
2026-04-29 16:30 45.30513 9.68658 15170 ft 387 kts 149°
2026-04-29 16:30 45.28213 9.70659 15895 ft 389 kts 149°
2026-04-29 16:30 45.25891 9.72682 16539 ft 395 kts 149°
2026-04-29 16:30 45.23542 9.74722 17248 ft 399 kts 149°
2026-04-29 16:31 45.21158 9.76792 17969 ft 403 kts 149°
2026-04-29 16:31 45.18753 9.78877 18623 ft 407 kts 149°
2026-04-29 16:31 45.16329 9.80979 19032 ft 415 kts 149°
2026-04-29 16:31 45.13854 9.83123 19027 ft 414 kts 149°
2026-04-29 16:32 45.11401 9.85246 19026 ft 414 kts 149°
2026-04-29 16:32 45.08947 9.87366 19036 ft 413 kts 149°
2026-04-29 16:32 45.06494 9.89481 19038 ft 413 kts 149°
2026-04-29 16:32 45.04042 9.91596 19038 ft 413 kts 149°
2026-04-29 16:33 44.99136 9.95821 19024 ft 413 kts 149°
2026-04-29 16:33 44.96682 9.97930 19034 ft 413 kts 150°
2026-04-29 16:33 44.94226 10.00039 19035 ft 413 kts 150°
2026-04-29 16:34 44.91773 10.02143 19036 ft 412 kts 150°
2026-04-29 16:34 44.89328 10.04239 19050 ft 412 kts 150°
2026-04-29 16:34 44.86868 10.06345 18826 ft 416 kts 150°
2026-04-29 16:34 44.84408 10.08445 18293 ft 410 kts 150°
2026-04-29 16:35 44.81990 10.10508 17725 ft 403 kts 150°
2026-04-29 16:35 44.79605 10.12545 17196 ft 399 kts 150°
2026-04-29 16:35 44.77242 10.14561 16675 ft 395 kts 150°
2026-04-29 16:35 44.74901 10.16555 16158 ft 392 kts 150°
2026-04-29 16:36 44.72626 10.18624 15620 ft 388 kts 143°
2026-04-29 16:36 44.70838 10.21430 15115 ft 385 kts 124°
2026-04-29 16:36 44.69618 10.24768 14638 ft 383 kts 115°
2026-04-29 16:36 44.68532 10.28185 14143 ft 382 kts 114°
2026-04-29 16:37 44.67443 10.31582 13677 ft 380 kts 115°
2026-04-29 16:37 44.66360 10.34890 13195 ft 377 kts 115°
2026-04-29 16:37 44.65271 10.38221 12700 ft 373 kts 115°
2026-04-29 16:37 44.64549 10.40450 12369 ft 372 kts 115°
2026-04-29 16:38 44.63140 10.44790 11724 ft 366 kts 115°
2026-04-29 16:38 44.62351 10.48132 11210 ft 354 kts 99°
2026-04-29 16:38 44.62313 10.51457 10807 ft 331 kts 88°
2026-04-29 16:38 44.62380 10.54591 10423 ft 312 kts 88°
2026-04-29 16:39 44.62436 10.57567 10083 ft 300 kts 89°
2026-04-29 16:39 44.62482 10.60479 9698 ft 297 kts 89°
2026-04-29 16:39 44.62291 10.63342 9310 ft 295 kts 101°
2026-04-29 16:39 44.61898 10.66158 9004 ft 295 kts 102°
2026-04-29 16:40 44.61507 10.69023 8549 ft 301 kts 101°
2026-04-29 16:40 44.61134 10.71910 8137 ft 299 kts 101°
2026-04-29 16:40 44.60794 10.74754 7750 ft 292 kts 97°
2026-04-29 16:40 44.61042 10.77518 7331 ft 282 kts 69°
2026-04-29 16:41 44.62051 10.79769 7014 ft 268 kts 44°
2026-04-29 16:41 44.63544 10.81222 6720 ft 258 kts 25°
2026-04-29 16:41 44.65139 10.82327 6414 ft 255 kts 24°
2026-04-29 16:41 44.66685 10.83526 6038 ft 255 kts 36°
2026-04-29 16:42 44.67716 10.85520 5665 ft 252 kts 68°
2026-04-29 16:42 44.67945 10.87901 5346 ft 246 kts 96°
2026-04-29 16:42 44.67407 10.90139 5071 ft 240 kts 115°
2026-04-29 16:42 44.66686 10.92209 4929 ft 231 kts 115°
2026-04-29 16:43 44.65967 10.94224 4747 ft 233 kts 115°
2026-04-29 16:43 44.65263 10.96189 4551 ft 217 kts 115°
2026-04-29 16:43 44.64591 10.98062 4340 ft 213 kts 115°
2026-04-29 16:43 44.63928 10.99912 4067 ft 211 kts 114°
2026-04-29 16:44 44.63273 11.01733 3923 ft 208 kts 114°
2026-04-29 16:44 44.62622 11.03547 3710 ft 207 kts 114°
2026-04-29 16:44 44.61977 11.05345 3506 ft 207 kts 115°
2026-04-29 16:44 44.61327 11.07157 3307 ft 208 kts 115°
2026-04-29 16:45 44.60688 11.08941 3113 ft 192 kts 114°
2026-04-29 16:45 44.60143 11.10457 2904 ft 163 kts 114°
2026-04-29 16:45 44.59646 11.11866 2701 ft 160 kts 113°
2026-04-29 16:45 44.59143 11.13269 2498 ft 161 kts 114°
2026-04-29 16:46 44.58639 11.14672 2293 ft 161 kts 114°
2026-04-29 16:46 44.58143 11.16055 2088 ft 153 kts 114°
2026-04-29 16:46 44.57693 11.17305 1884 ft 136 kts 112°
2026-04-29 16:46 44.57280 11.18449 1686 ft 128 kts 113°
2026-04-29 16:47 44.56895 11.19529 1503 ft 126 kts 114°
2026-04-29 16:47 44.56498 11.20632 1322 ft 126 kts 112°
2026-04-29 16:47 44.56116 11.21699 1105 ft 120 kts 112°
2026-04-29 16:47 44.55732 11.22746 943 ft 120 kts 112°
2026-04-29 16:48 44.55345 11.23785 676 ft 121 kts 111°
2026-04-29 16:48 44.54991 11.24832 435 ft 120 kts 112°
2026-04-29 16:48 44.54613 11.25859 424 ft 117 kts 111°
2026-04-29 16:48 44.54255 11.26889 279 ft 120 kts 112°
2026-04-29 16:49 44.53876 11.27943 134 ft 119 kts 114°
2026-04-29 16:49 44.53543 11.28870 123 ft 94 kts 116°
2026-04-29 16:49 44.53335 11.29449 126 ft 41 kts 117°
2026-04-29 16:49 44.53253 11.29624 126 ft 10 kts 170°
2026-04-29 16:50 44.53193 11.29651 127 ft 8 kts 143°
2026-04-29 16:50 44.53144 11.29698 125 ft 9 kts 147°
2026-04-29 16:50 44.53093 11.29745 125 ft 9 kts 147°
2026-04-29 16:50 44.53071 11.29765 127 ft 0 kts 147°
2026-04-29 16:51 44.53045 11.29781 127 ft 7 kts 180°
2026-04-29 16:51 44.53030 11.29749 126 ft 4 kts 284°
2026-04-29 16:51 44.53051 11.29676 125 ft 12 kts 298°
2026-04-29 16:51 44.53105 11.29537 124 ft 20 kts 297°
2026-04-29 16:52 44.53171 11.29353 126 ft 20 kts 300°
2026-04-29 16:52 44.53232 11.29183 127 ft 19 kts 296°
2026-04-29 16:52 44.53292 11.29017 127 ft 19 kts 297°
2026-04-29 16:52 44.53351 11.28855 124 ft 18 kts 296°
2026-04-29 16:53 44.53408 11.28697 124 ft 18 kts 296°
2026-04-29 16:53 44.53463 11.28543 126 ft 17 kts 297°
2026-04-29 16:53 44.53517 11.28394 125 ft 17 kts 297°
2026-04-29 16:53 44.53569 11.28249 125 ft 16 kts 296°
2026-04-29 16:54 44.53619 11.28109 125 ft 16 kts 296°
2026-04-29 16:54 44.53669 11.27973 124 ft 15 kts 297°
2026-04-29 16:54 44.53713 11.27850 125 ft 10 kts 297°
2026-04-29 16:54 44.53719 11.27805 127 ft 4 kts 229°
2026-04-29 16:55 44.53680 11.27777 127 ft 6 kts 207°
2026-04-29 16:55 44.53642 11.27753 126 ft 5 kts 186°
2026-04-29 16:55 44.53615 11.27793 127 ft 7 kts 112°
2026-04-29 16:55 44.53595 11.27804 127 ft 6 kts 195°
2026-04-29 16:56 44.53578 11.27791 125 ft 0 kts 209°